Location: Cubitt Town
(51.4833°N, 0.0000°E)
Time: 00:23:43
(UTC+00:00)

Cosmos 1634 Rocket - Pass Details

Date: 15 May 2026
Orbit: 960 x 990 km, 82.9° (Epoch: 9 June)

Event Time Altitude Azimuth Distance (km) Brightness Sun altitude
Exits shadow 22:22:33 25° 166° (SSE) 1,838 4.8 -16.5°
Maximum altitude 22:26:12 63° 94° (E) 1,075 4.1 -16.8°
Drops below altitude 10° 22:32:20 10° 15° (NNE) 2,723 7.1 -17.1°
Sets 22:34:53 0° 13° (NNE) 3,679 8.0 -17.2°
